CST,Max TemperatureF,Mean TemperatureF,Min TemperatureF,Max Dew PointF,MeanDew PointF,Min DewpointF,Max Humidity, Mean Humidity, Min Humidity, Max Sea Level PressureIn, Mean Sea Level PressureIn, Min Sea Level PressureIn, Max VisibilityMiles, Mean VisibilityMiles, Min VisibilityMiles, Max Wind SpeedMPH, Mean Wind SpeedMPH, Max Gust SpeedMPH,PrecipitationIn, CloudCover, Events, WindDirDegrees
2013-11-1,74,59,44,50,44,38,100,65,29,30.02,29.87,29.81,10,8,0,17,6,22,0.00,1,Fog,274
2013-11-2,63,51,39,42,38,33,83,59,34,30.24,30.17,30.03,10,10,9,20,7,24,0.00,0,,306
2013-11-3,66,52,37,42,38,36,100,69,37,30.27,30.19,30.06,10,7,0,14,6,21,0.00,1,Fog,91
2013-11-4,58,56,53,54,49,41,93,77,61,30.18,30.13,30.08,10,8,4,13,6,17,0.22,7,Rain,100
2013-11-5,66,61,55,63,59,53,93,90,87,30.16,30.06,29.97,10,6,1,14,7,18,0.94,8,Rain,89
2013-11-6,66,52,37,63,49,35,100,83,66,30.39,30.13,29.92,10,9,5,22,9,26,0.11,7,Rain,311
2013-11-7,63,49,34,41,37,32,96,70,43,30.48,30.41,30.37,10,9,1,12,3,24,0.00,0,,244
2013-11-8,70,54,37,44,39,34,92,59,26,30.37,30.26,30.15,10,9,3,12,4,16,0.00,1,,113
2013-11-9,67,57,47,50,45,40,86,63,40,30.28,30.20,30.14,10,10,10,12,3,15,0.00,7,,171
2013-11-10,71,61,51,50,47,42,89,65,40,30.37,30.31,30.28,10,10,10,13,3,16,0.00,6,,63
2013-11-11,72,60,47,54,48,43,86,63,40,30.30,30.25,30.18,10,10,10,14,3,17,0.00,4,,31
2013-11-12,63,47,31,46,24,12,77,49,21,30.72,30.62,30.33,10,10,10,23,11,55,0.00,3,,1
2013-11-13,53,38,23,26,21,16,84,53,22,30.73,30.58,30.40,10,10,9,8,3,12,T,0,Snow,83
2013-11-14,58,44,29,36,28,23,78,52,25,30.37,30.22,30.06,10,10,10,12,4,14,T,2,Rain,87
2013-11-15,59,53,47,50,45,38,89,75,61,30.07,29.97,29.91,10,9,5,13,7,15,T,8,Rain,82
2013-11-16,75,63,51,66,57,50,96,77,57,29.90,29.77,29.65,10,9,4,25,10,32,0.00,7,,167
2013-11-17,82,69,55,66,47,25,79,48,16,30.09,29.78,29.60,10,10,10,32,13,45,0.00,1,,268
2013-11-18,69,56,43,39,32,21,63,42,20,30.25,30.20,30.11,10,10,0,14,4,17,0.00,0,,45
2013-11-19,62,54,46,37,30,21,66,45,23,30.27,30.18,30.09,10,10,10,17,8,23,0.00,4,,82
2013-11-20,67,55,42,39,31,27,62,42,22,30.10,30.03,29.94,10,10,10,15,9,18,0.00,4,,103
2013-11-21,61,56,50,56,50,37,89,67,44,30.22,30.07,30.01,10,7,1,12,7,14,0.42,8,Rain,49
2013-11-22,51,45,38,46,36,34,93,82,70,30.50,30.42,30.24,10,8,2,18,10,23,0.12,8,Rain,333
2013-11-23,47,40,33,35,26,14,92,62,31,30.63,30.58,30.50,10,10,10,18,10,24,T,5,Rain,4
2013-11-24,33,31,29,20,15,10,59,51,43,30.69,30.57,30.39,10,10,10,15,7,20,0.01,5,,72
2013-11-25,36,34,31,33,28,15,89,68,47,30.38,30.28,30.21,10,8,2,14,6,15,0.03,8,Rain,88
2013-11-26,51,42,33,34,28,20,92,64,36,30.34,30.19,30.12,10,10,9,28,10,35,0.00,4,,337
2013-11-27,43,34,24,20,13,9,75,51,27,30.48,30.40,30.34,10,10,10,20,6,25,0.00,0,,326
2013-11-28,53,37,21,28,22,17,88,59,29,30.48,30.41,30.36,10,10,10,8,1,9,0.00,0,,88
2013-11-29,58,41,24,31,26,21,85,56,26,30.56,30.45,30.36,10,10,8,7,1,10,0.00,0,,63
2013-11-30,63,48,33,44,37,28,82,65,47,30.37,30.26,30.16,10,10,8,14,4,17,0.00,1,,68